SES-9

Last updated on Jan. 24, 2021, 6:18 a.m. UTC

1 41380U 16013A   21023.87538777 -.00000332  00000-0  00000-0 0  9996
2 41380   0.0532 265.7913 0000672 111.6197 169.4263  1.00272586 17686
UTC
Height (km)
Latitude
Longitude
Inclination
Orbital Period
UTC large
Height (km)
Speed (km/s)
/
Latitude / Longitude
Inclination (degrees)
Orbital Period (minutes)
Azimuth
Elevation
Range (km)
Doppler Factor
iOS Compass Heading
iOS Angle

Next 30 passes for location: Hong Kong

Rise time Rise Azimuth (degrees) Set time Set Azimuth (degrees) Duration Max altitude (degrees)

No matching passes for this satellites